Back to catalog

ASTRA 5B

AliveCommunicationsGEO
NORAD 39617·PAYLOAD·🇱🇺 Luxembourg

Launched Mar 22, 2014 from Guiana Space Centre

Loading…

TLE

FreshSource: CelesTrak SupGP

Epoch: Sep 13, 2026, 23:30 UTC

1 39617C 14011B   26256.97916667  .00000227  00000+0  00000+0 0  2560
2 39617   0.1002 294.7831 0002898 254.7022 179.4753  1.00269513    18

Track ASTRA 5B in real time with AllMySat

Download on the App Store